Vertical_Velocity
1 -1 -2 -6 6 0 -10 15 20 -7 6 7 -8 -10 -3 -1 9 5 -0 -1 1 -2 -5 -1 -2 -1 1 2 0 -0 -1 -0 1 2 -2 3 1 -0 -2 3 2 -3 2 -1 -2 -0 -4 -1 1
4 -2 -4 -3 8 8 13 13 -5 5 4 -2 -11 -10 -15 1 8 -1 -10 1 0 -4 -6 -3 -0 0 1 5 4 -1 -1 -0 2 0 1 7 2 -2 -0 1 2 1 2 0 -1 -3 2 -3 3
-1 2 2 -5 2 -8 12 -5 -5 7 -9 -16 -3 -10 -1 14 -10 -3 0 -4 -6 -2 -5 -4 6 4 3 5 4 3 1 -1 3 1 -2 4 3 1 -2 -2 1 3 -0 5 -2 -5 5 -2 2
-4 -2 -2 -8 -8 -16 23 12 -3 -8 -3 -15 -2 5 -3 -20 -3 -2 -8 -6 -4 -1 -3 1 0 -1 -1 4 3 6 5 14 10 -2 -10 6 5 -2 -4 1 -6 6 3 3 -0 -2 1 3 -1
-1 -6 4 -1 -17 -15 -2 -13 -23 -1 13 5 1 -14 34 -6 -5 -7 -6 -2 -1 -2 -2 1 -5 -2 -3 -4 2 12 -10 28 24 68 37 3 1 2 -5 -1 -1 1 2 -1 0 -2 1 4 0
-6 2 2 -3 1 47 -2 -5 -13 -10 3 9 -14 -8 19 -4 3 -3 -5 -5 -0 -2 4 -9 4 -1 -4 -3 -3 5 8 -59 -7 -30 93 13 1 -0 -1 -4 0 1 4 1 1 4 -5 2 -1
-2 3 -7 -3 -10 2 18 -1 -13 -14 23 20 25 10 17 4 -6 -5 -3 -2 0 1 -2 1 -5 -1 3 -3 -12 5 8 3 -33 -25 -11 25 21 8 -3 4 -22 4 2 2 -3 -1 3 -0 1
0 6 -1 -8 -10 7 48 -5 -14 -16 -19 -3 -5 -10 23 -2 2 -1 -3 -0 -0 1 0 -5 -3 -1 -1 -4 -1 -1 3 -8 13 15 -10 45 22 -1 9 6 2 -2 4 1 -4 -1 4 0 -1
6 8 -4 -14 -2 21 25 -1 -6 -3 -7 4 -1 -23 10 -14 -2 -10 4 0 -4 -0 1 -3 -8 0 0 -4 -1 -1 4 -1 3 -5 6 19 -3 11 -2 1 2 -5 -5 1 -1 1 2 2 1
6 9 -9 -14 21 -3 9 11 -14 21 20 17 6 10 -3 -3 -4 0 -13 -14 3 0 1 0 -5 -3 -1 -1 3 2 6 -1 -10 -33 18 4 4 -0 -10 12 7 1 1 0 2 -2 4 1 -1
-5 -8 2 -7 36 -1 -12 26 -2 -3 -7 -10 38 3 30 -4 -5 1 -5 -8 2 -1 -1 0 -3 -2 -2 -0 -1 1 -1 6 -3 -9 -24 -18 3 -5 5 9 4 -0 -1 1 -2 -4 3 -0 1
10 0 -2 -6 1 31 -11 -4 14 4 7 9 -12 -4 -9 6 -1 1 -0 -4 -3 -4 -1 -1 -2 -3 -3 -1 2 2 7 2 2 2 -1 0 0 2 -4 -10 9 3 2 2 1 1 4 -2 2
12 -9 -1 -2 -4 -11 11 -12 -14 -6 -4 -10 -2 15 -10 -0 -2 -1 3 -11 2 -2 -1 -0 -2 -1 -4 -6 -4 -3 0 1 8 8 2 -0 2 2 1 -4 12 11 -6 3 -0 -1 3 -3 2
2 -4 2 -5 -0 -2 14 -11 10 3 -5 -15 9 -6 -5 -4 -1 3 -6 -2 -4 -8 1 -0 1 -1 0 -0 1 -5 -3 1 1 2 0 1 4 3 13 2 7 3 -4 1 1 0 2 2 3
3 3 -5 9 -10 -6 8 4 -11 4 -7 -19 24 -8 0 -3 -1 -1 -3 -3 5 -3 -17 1 1 2 -0 -2 1 3 1 -4 -3 0 -2 4 2 6 -3 8 5 1 6 3 1 0 2 1 2
3 5 5 -12 -4 -15 14 -28 -3 2 15 -6 4 -6 -3 0 2 1 2 2 -5 2 -14 -2 -1 0 0 1 -1 1 2 4 0 2 4 -4 1 -5 -11 1 2 9 -9 3 -2 -0 -2 5 2
5 -4 2 -5 -19 -6 30 -11 -10 -2 8 -6 -10 6 3 -11 -4 4 -4 2 -2 2 -3 -1 -2 0 -2 -1 -2 2 -1 -1 2 2 3 -1 4 8 11 -1 -9 33 9 -1 -5 3 1 4 4
-11 7 -2 -9 -19 31 -3 -18 -13 45 -14 -9 -7 -6 15 0 -12 -6 -3 3 -0 0 1 -0 1 -0 -2 -0 -3 -0 -2 -3 1 -2 -1 -5 -2 12 7 9 -2 4 6 5 3 -2 0 2 4
16 8 2 -11 -1 43 -11 -14 5 -10 -4 7 3 -9 -5 7 -2 -5 -9 -2 -1 -4 -3 3 -0 -1 -2 -5 -5 0 -1 -7 -5 -15 -0 16 19 26 12 -6 -7 -2 -3 11 7 6 6 1 -1
0 -8 -14 -15 8 -5 10 -5 -6 5 -4 7 -8 21 8 17 -5 3 -13 -3 1 -1 -1 1 -0 -3 -2 -4 -5 -0 3 -3 -1 9 -6 10 -1 -6 -5 1 2 2 -3 -8 -5 -10 -12 -6 -12
20 -9 -2 -5 -0 23 28 -9 -6 -15 -7 0 9 -11 9 24 4 -0 -16 0 -0 -1 -2 1 4 -3 -4 -3 -4 -6 -3 -2 -4 -2 1 -4 -1 3 -2 -2 1 -1 -2 -3 -4 -4 -3 -1 -2
-2 -0 15 2 20 -1 32 -17 -3 10 12 23 7 -5 2 -11 30 3 -14 -2 -2 -3 -3 -1 -1 -1 -3 -0 -3 -7 0 2 1 -2 7 0 3 -1 -5 2 0 -4 -2 -6 0 4 -2 -3 -1
-25 26 -1 -6 -3 20 -13 23 -45 8 -9 8 -3 -9 -6 -13 -8 10 -13 -1 -3 -2 -2 -2 1 -3 -3 -0 4 -5 -1 0 -2 -5 5 -3 -4 -4 -0 1 2 4 3 2 -1 -2 -4 -4 -1
-22 -12 -6 13 8 19 -10 16 -27 -4 -17 9 20 -2 -8 6 9 6 -12 -4 -1 -3 -1 -0 -1 -1 -4 -1 -2 0 -4 -4 -2 -3 -5 -0 -2 -1 -2 -6 -4 -4 -4 10 1 2 1 -0 2
36 13 1 3 14 -10 -7 21 -42 -5 -17 24 22 19 -3 3 16 3 -16 -6 -1 -2 1 1 -1 -1 -3 -2 -4 -1 -1 -1 -2 -5 -2 -2 -2 -1 -1 -3 -4 -10 -4 -3 1 4 18 2 -3
-15 3 -9 -3 2 -8 3 -4 -45 -7 19 -12 5 -4 2 13 8 2 -1 -5 2 -1 1 -2 -1 -2 -3 -0 -1 -5 -3 -1 -1 -5 -3 -3 -2 2 1 0 -3 -6 -4 -3 -3 -3 0 5 1
-27 10 -24 20 -7 9 -5 -4 17 14 11 -5 -15 -7 -12 26 -10 -15 2 -10 1 -1 1 1 1 -3 -1 -2 -3 -5 -4 -2 -3 -1 -3 -2 -2 1 -6 0 0 4 1 -1 -1 -4 -5 -4 5
3 26 4 5 1 0 -4 3 -3 -5 -4 10 -11 10 21 14 20 23 4 -11 -1 1 1 3 -1 1 0 -1 -1 -2 -5 -4 -3 -6 -6 -3 -0 -2 -1 -3 -1 3 4 3 -1 8 1 0 4
6 12 -2 -0 7 -0 0 0 -53 -7 33 28 16 -9 -20 -12 -11 12 4 -4 0 -2 -3 2 -1 2 -1 2 2 -0 0 -3 -4 -3 -5 -7 -3 -2 -4 -6 -5 -6 -2 -4 -2 2 -2 -5 -2
2 -4 -6 1 0 2 4 -19 24 7 -2 3 -6 11 27 11 -11 -10 8 2 -4 0 -0 3 2 -1 1 3 4 3 2 -0 -2 -1 -1 -0 -1 -3 -1 -2 -3 -3 -3 -1 -2 -2 -1 -0 -3
Height
3130 3130 3130 3128 3135 3128 3120 3116 3114 3117 3121 3121 3121 3122 3122 3123 3123 3122 3117 3119 3119 3117 3120 3121 3120 3121 3122 3124 3124 3124 3125 3126 3127 3129 3131 3134 3136 3137 3138 3139 3140 3141 3144 3146 3148 3150 3153 3155 3157
3128 3128 3129 3130 3131 3123 3116 3116 3116 3118 3119 3117 3119 3120 3121 3123 3120 3116 3116 3117 3118 3116 3117 3120 3119 3119 3120 3122 3122 3123 3123 3125 3126 3128 3131 3132 3134 3135 3137 3138 3139 3140 3144 3146 3148 3151 3153 3154 3156
3126 3126 3128 3128 3126 3121 3116 3115 3117 3117 3116 3117 3119 3119 3120 3118 3115 3115 3117 3117 3117 3116 3115 3117 3116 3116 3117 3118 3119 3120 3121 3123 3125 3127 3127 3130 3131 3133 3135 3137 3138 3140 3143 3146 3149 3151 3153 3154 3156
3125 3126 3127 3124 3121 3117 3114 3115 3115 3116 3116 3117 3118 3119 3117 3116 3115 3115 3115 3114 3113 3113 3113 3114 3113 3112 3111 3113 3115 3116 3117 3119 3121 3123 3126 3127 3129 3131 3133 3135 3137 3139 3142 3146 3149 3151 3152 3154 3155
3122 3124 3125 3122 3117 3114 3110 3113 3114 3116 3117 3116 3116 3117 3116 3111 3112 3112 3112 3112 3111 3110 3108 3110 3110 3109 3108 3108 3109 3109 3110 3101 3109 3103 3115 3123 3127 3128 3131 3133 3135 3138 3141 3145 3148 3150 3152 3154 3156
3118 3122 3121 3117 3111 3109 3108 3110 3112 3115 3115 3114 3115 3114 3115 3109 3109 3110 3110 3108 3108 3106 3104 3104 3105 3105 3103 3104 3106 3106 3106 3097 3103 3102 3105 3119 3123 3125 3127 3130 3134 3136 3140 3143 3147 3150 3152 3154 3156
3114 3118 3116 3115 3112 3109 3106 3106 3109 3113 3114 3114 3113 3112 3113 3106 3104 3106 3106 3104 3103 3102 3099 3099 3100 3099 3098 3099 3101 3099 3100 3099 3101 3105 3099 3114 3118 3121 3125 3128 3130 3134 3138 3141 3145 3149 3152 3153 3155
3111 3115 3112 3112 3111 3108 3108 3102 3106 3110 3112 3109 3109 3109 3110 3104 3103 3102 3102 3100 3099 3097 3094 3092 3093 3093 3093 3094 3094 3093 3093 3092 3097 3094 3087 3107 3112 3113 3122 3126 3130 3133 3136 3140 3143 3147 3151 3153 3155
3111 3110 3106 3107 3106 3106 3102 3102 3105 3108 3108 3109 3107 3105 3106 3100 3101 3098 3097 3096 3094 3092 3089 3086 3085 3087 3089 3089 3092 3088 3092 3093 3097 3091 3095 3105 3111 3116 3117 3123 3128 3131 3134 3138 3142 3146 3149 3152 3154
3106 3104 3101 3103 3103 3103 3103 3101 3102 3106 3105 3105 3103 3102 3100 3098 3096 3095 3091 3086 3089 3087 3084 3082 3082 3083 3086 3086 3086 3084 3087 3090 3095 3092 3098 3103 3110 3114 3116 3120 3125 3129 3133 3136 3140 3144 3147 3151 3152
3100 3098 3100 3099 3100 3099 3101 3101 3101 3101 3102 3103 3103 3102 3099 3094 3092 3091 3088 3084 3084 3082 3079 3078 3078 3080 3080 3082 3083 3084 3085 3089 3092 3095 3098 3104 3107 3111 3111 3116 3118 3125 3130 3133 3137 3141 3146 3149 3152
3095 3097 3097 3097 3096 3096 3096 3097 3097 3097 3098 3099 3098 3097 3095 3095 3091 3089 3087 3083 3079 3078 3075 3074 3075 3076 3077 3078 3080 3081 3083 3086 3090 3092 3096 3100 3104 3107 3109 3115 3117 3121 3127 3131 3136 3139 3144 3148 3150
3090 3091 3092 3093 3093 3092 3092 3091 3091 3091 3092 3093 3094 3092 3090 3091 3089 3086 3085 3079 3078 3075 3073 3071 3072 3072 3073 3074 3075 3078 3080 3083 3086 3090 3092 3095 3099 3103 3107 3111 3112 3116 3123 3129 3133 3136 3142 3145 3148
3088 3087 3086 3086 3087 3087 3087 3086 3087 3085 3086 3087 3089 3086 3086 3086 3085 3084 3081 3078 3074 3072 3072 3071 3070 3071 3071 3071 3071 3073 3076 3079 3082 3085 3088 3092 3095 3099 3101 3103 3111 3113 3121 3127 3132 3136 3139 3143 3146
3083 3081 3080 3079 3081 3081 3083 3079 3079 3080 3081 3081 3084 3082 3082 3082 3081 3080 3078 3075 3074 3071 3068 3070 3069 3069 3068 3069 3069 3069 3071 3074 3077 3080 3083 3087 3090 3093 3098 3100 3104 3111 3120 3124 3129 3133 3137 3141 3145
3077 3077 3073 3072 3075 3075 3078 3070 3075 3075 3076 3076 3078 3078 3077 3078 3078 3077 3075 3072 3071 3069 3065 3066 3066 3066 3064 3063 3063 3064 3066 3068 3070 3073 3076 3079 3082 3087 3093 3098 3103 3107 3115 3120 3126 3131 3135 3139 3142
3070 3067 3066 3067 3069 3068 3069 3067 3069 3070 3069 3071 3074 3075 3075 3074 3074 3073 3071 3070 3068 3066 3064 3064 3064 3062 3060 3058 3056 3058 3059 3062 3064 3065 3068 3072 3075 3079 3085 3092 3100 3106 3113 3117 3121 3128 3133 3136 3140
3065 3063 3063 3062 3061 3062 3062 3063 3064 3066 3065 3067 3069 3071 3071 3070 3070 3069 3068 3067 3066 3064 3062 3061 3061 3058 3055 3050 3050 3052 3053 3056 3058 3059 3062 3067 3070 3075 3080 3085 3094 3101 3108 3115 3120 3124 3128 3133 3137
3060 3060 3059 3057 3056 3057 3056 3059 3060 3062 3062 3062 3062 3064 3067 3066 3066 3065 3064 3063 3063 3061 3059 3058 3056 3054 3051 3049 3048 3051 3053 3054 3056 3058 3059 3065 3069 3073 3079 3086 3092 3097 3102 3112 3117 3122 3125 3128 3133
3056 3058 3054 3052 3051 3055 3053 3053 3055 3055 3055 3057 3058 3060 3060 3061 3062 3061 3060 3059 3060 3058 3056 3055 3054 3051 3050 3049 3048 3050 3052 3054 3057 3061 3065 3069 3074 3079 3082 3085 3089 3093 3098 3103 3110 3116 3123 3128 3133
3050 3051 3051 3051 3048 3048 3049 3048 3048 3048 3049 3050 3051 3053 3055 3057 3056 3055 3055 3056 3056 3055 3053 3053 3052 3050 3049 3048 3048 3048 3050 3053 3057 3061 3065 3068 3073 3075 3075 3079 3085 3090 3097 3103 3111 3117 3122 3127 3131
3043 3046 3048 3048 3048 3045 3046 3040 3039 3040 3038 3039 3043 3046 3049 3051 3053 3050 3051 3052 3052 3052 3051 3050 3049 3048 3048 3048 3048 3047 3050 3053 3056 3059 3062 3068 3070 3071 3072 3077 3083 3088 3095 3103 3110 3115 3119 3123 3126
3035 3043 3046 3047 3045 3043 3039 3038 3033 3034 3033 3035 3036 3039 3042 3045 3048 3047 3046 3048 3048 3048 3049 3048 3047 3047 3046 3047 3047 3046 3047 3049 3051 3055 3060 3065 3068 3069 3072 3076 3082 3088 3095 3102 3107 3111 3115 3117 3123
3034 3038 3042 3042 3042 3031 3032 3034 3027 3028 3029 3030 3031 3033 3036 3038 3040 3043 3041 3043 3044 3044 3046 3046 3046 3045 3045 3047 3047 3047 3046 3047 3048 3052 3057 3061 3064 3068 3070 3074 3079 3085 3091 3097 3103 3107 3111 3115 3118
3031 3035 3038 3040 3031 3020 3027 3026 3021 3020 3022 3025 3025 3029 3032 3034 3036 3037 3036 3037 3040 3041 3043 3044 3044 3044 3044 3045 3046 3046 3046 3046 3048 3050 3054 3058 3062 3064 3069 3073 3077 3080 3087 3093 3098 3101 3106 3110 3113
3024 3027 3027 3023 3019 3018 3019 3011 3011 3014 3017 3020 3023 3025 3028 3030 3031 3033 3033 3033 3036 3038 3040 3041 3041 3042 3043 3043 3045 3045 3047 3046 3047 3048 3053 3056 3059 3063 3067 3071 3075 3078 3083 3089 3094 3098 3099 3103 3107
3016 3017 3021 3022 3025 3026 3010 3007 3009 3008 3013 3016 3020 3023 3025 3026 3027 3029 3031 3029 3032 3035 3037 3039 3039 3040 3042 3042 3043 3044 3045 3047 3047 3048 3050 3053 3056 3060 3063 3067 3071 3074 3079 3084 3088 3092 3095 3098 3100
3014 3019 3020 3021 3020 3018 3004 3002 3004 3007 3011 3016 3018 3021 3022 3023 3026 3026 3026 3025 3028 3031 3034 3036 3037 3037 3040 3041 3042 3043 3044 3044 3046 3048 3049 3051 3054 3057 3060 3063 3068 3071 3076 3079 3083 3085 3088 3091 3095
3010 3011 3014 3017 3016 3014 3009 3005 3004 3007 3010 3014 3016 3018 3020 3021 3021 3024 3024 3024 3024 3027 3030 3033 3034 3035 3036 3039 3040 3041 3042 3043 3044 3045 3047 3048 3051 3054 3056 3058 3061 3064 3069 3072 3074 3077 3080 3083 3086
3003 3006 3009 3012 3012 3011 3012 3009 3006 3006 3010 3012 3014 3014 3018 3019 3020 3021 3023 3022 3021 3023 3025 3028 3030 3032 3033 3036 3038 3039 3040 3040 3041 3043 3044 3046 3049 3050 3052 3054 3057 3060 3063 3066 3068 3070 3073 3076 3079